Tracking 29892 objects as of 21-Nov-2024
HD Live streaming from Space Station
objects crossing your sky now

STARLINK-1713

Track STARLINK-1713 now!
10-day predictions
STARLINK-1713 is classified as:


NORAD ID: 46360
Int'l Code: 2020-062AM
Perigee: 553.1 km
Apogee: 555.5 km
Inclination: 53.1 °
Period: 95.6 minutes
Semi major axis: 6925 km
RCS: Unknown
Launch date: September 3, 2020
Source: United States (US)
Launch site: AIR FORCE EASTERN TEST RANGE (AFETR)
Your satellite tracking list
Your tracking list is empty




NASA's NSSDC Master Catalog

Two Line Element Set (TLE):
1 46360U 20062AM  24325.91385020  .00004062  00000-0  29131-3 0  9994
2 46360  53.0549 298.4777 0001692  76.9558 283.1620 15.06412840233718
Source of the keplerian elements: AFSPC